Regional Weather Roundup
Issued by NWS

Home | Current Version | Previous Version | Graphics & Text | Print | Product List | Glossary On
Versions: 1 2 3 4 5 6 7 8 9 10 11 12 13 14 15 16 17 18 19 20 21 22 23 24 25 26 27 28 29 30 31 32 33 34 35 36 37 38 39 40 41 42 43 44 45 46 47 48 49 50
000
ASUS43 KFSD 280110
RWRSD

WEATHER ROUNDUP FOR SOUTH DAKOTA
NATIONAL WEATHER SERVICE SIOUX FALLS SD
800 PM CDT THU JUL 27 2017

NOTE: "FAIR" INDICATES FEW OR NO CLOUDS BELOW 12,000 FEET WITH NO
SIGNIFICANT WEATHER AND/OR OBSTRUCTIONS TO VISIBILITY.


SDZ001>005-009-010-012>017-280200-
NORTHWEST AND NORTH CENTRAL SOUTH DAKOTA

CITY           SKY/WX    TMP DP  RH WIND       PRES   REMARKS
BUFFALO          N/A     72  52  49 S23G30    29.99R
FAITH            N/A     68  60  75 S7G26     30.02F
MOBRIDGE       CLOUDY    78  62  57 E14       30.01F
$$

SDZ012>016-024>037-041>051-057-063-072>074-280200-
SOUTHWEST AND SOUTH CENTRAL SOUTH DAKOTA

CITY           SKY/WX    TMP DP  RH WIND       PRES   REMARKS
RAPID CTY ARPT HVY RAIN  62  58  86 N18       30.14R FOG
PIERRE         CLOUDY    83  54  36 SE8       30.01S
CUSTER         RAIN      58  54  86 E14G29    30.20R FOG
ELLSWORTH AFB  TSTM      63  59  88 E21       30.12
PHILIP         PTSUNNY   82  54  37 E9        30.03S
PINE RIDGE     CLOUDY    74  53  48 E13       30.05R
SPEARFISH      LGT RAIN  64  57  77 SW17G33   30.05F
WINNER         FAIR      82  56  40 SE10      30.04F
$$

SDZ004>011-016>023-039-040-280200-
NORTHEAST SOUTH DAKOTA

CITY           SKY/WX    TMP DP  RH WIND       PRES   REMARKS
ABERDEEN       PTSUNNY   79  63  57 CALM      30.05S
WATERTOWN      PTCLDY    77  57  50 E8        30.07S
BROOKINGS      CLEAR     78  61  55 E7        30.08R
SISSETON         N/A     79  62  56 NE6       30.05S
$$

SDZ017-020-022-023-036>040-048>070-280200-
SOUTHEAST SOUTH DAKOTA

CITY           SKY/WX    TMP DP  RH WIND       PRES   REMARKS
SIOUX FALLS    PTCLDY    78  62  57 NE8       30.05S
HURON          PTCLDY    77  64  64 E5        30.04S
CHAMBERLAIN    CLOUDY    82  59  45 SE7       30.04S
MITCHELL       PTCLDY    78  66  66 E5        30.04S
YANKTON        CLEAR     77  65  66 NE5       30.04S
$$

ABBREVIATIONS USED IN REMARKS
   TC - TEMPERATURE IN CELSIUS
  WCI - WIND CHILL INDEX
   HX - HEAT INDEX
  VSB - VISIBILITY





USA.gov is the U.S. government's official web portal to all federal, state and local government web resources and services.